Regional Weather Roundup
Issued by NWS

Home | Current Version | Previous Version | Text Only | Print | Product List | Glossary Off
Versions: 1 2 3 4 5 6 7 8 9 10 11 12 13 14 15 16 17 18 19 20 21 22 23 24 25 26 27 28 29 30 31 32 33 34 35 36 37 38 39 40 41 42 43 44 45 46 47 48 49 50

000
ASUS43 KDTX 260110
RWRMI
MICHIGAN HOURLY REGIONAL WEATHER ROUNDUP
NATIONAL WEATHER SERVICE DETROIT/PONTIAC MI
900 PM EDT SAT APR 25 2015

NOTE: "FAIR" INDICATES FEW OR NO CLOUDS BELOW 12,000 FEET WITH NO
SIGNIFICANT WEATHER AND/OR OBSTRUCTION TO VISIBILITY.

MIZ047>049-052>055-059>063-066>070-074>076-081>083-260200-
SOUTHEAST LOWER MICHIGAN

CITY           SKY/WX    TMP DP  RH WIND       PRES   REMARKS
ADRIAN         CLOUDY    43  32  65 E9        29.79R
ALMA           CLOUDY    43  25  50 NE9       29.88R
ANN ARBOR      MOCLDY    45  32  60 E5        29.79S
BAD AXE        CLEAR     37  22  55 N6        29.89R WCI  32
CARO           PTCLDY    40  26  57 CALM      29.87R
DETROIT CITY   MOCLDY    43  27  53 NE9       29.82S
DETROIT        MOCLDY    48  27  44 NE10      29.81S
FLINT          CLOUDY    47  25  42 NE12      29.85R
GROSSE ILE     MOCLDY    45  28  53 NE7       29.79S
HILLSDALE      CLOUDY    46  33  59 NE5       29.76S
HOWELL         MOCLDY    46  19  34 NE7       29.81R

CITY           SKY/WX    TMP DP  RH WIND       PRES   REMARKS
JACKSON        MOCLDY    45  26  47 NE5       29.79R
LAMBERTVILLE   CLOUDY    45  28  53 E6        29.78F
LANSING        MOCLDY    45  26  47 NE13      29.83R
LAPEER         FAIR      41  25  53 NE8       29.85S
MASON          MOCLDY    46  19  34 NE9       29.81R
MONROE         CLOUDY    43  27  52 NE3       29.78S
PONTIAC        MOCLDY    45  26  47 NE14      29.81R
PORT HOPE        N/A     38  27  64 NW8       29.88S WCI  32
PORT HURON     PTCLDY    39  25  56 N6        29.85S WCI  35
TRI CITIES     PTCLDY    40  26  57 NE10      29.89R WCI  33
MIDLAND        FAIR      40  22  49 NE5       29.89S
TROY           MOCLDY    47  26  43 NE12G18   29.84R
SAGINAW HB     MOCLDY    39  27  60 N13       29.88R WCI  32
$$
MIZ043>046-050>051-056>058-064>065-071>073-077>080-260200-
SOUTHWEST LOWER MICHIGAN

CITY           SKY/WX    TMP DP  RH WIND       PRES   REMARKS
BATTLE CREEK   MOCLDY    49  30  48 NE3       29.79R
BENTON HARBOR  CLOUDY    43  35  73 N3        29.80R
BIG RAPIDS     PTCLDY    45  19  35 E8        29.86R
COLDWATER      CLOUDY    45  31  57 E3        29.77R
FREMONT        MOCLDY    49  15  25 E9G17     29.83R
HOLLAND        PTCLDY    52  30  43 NE12G17   29.82R
GRAND RAPIDS   MOCLDY    47  24  40 NE13      29.83R
IONIA          FAIR      45  27  50 NE10G21   29.83R
KALAMAZOO      CLOUDY    49  34  56 CALM      29.79R
LUDINGTON      MOCLDY    48  27  43 N6        29.84R
MARSHALL       MOCLDY    45  30  57 CALM      29.78R
MOUNT PLEASANT PTCLDY    41  23  47 E7        29.88R
MUSKEGON       MOCLDY    50  24  36 E8        29.83R
SOUTH HAVEN    CLOUDY    46  36  68 CALM      29.80R
$$
MIZ016>042-260200-
NORTHERN LOWER MICHIGAN

CITY           SKY/WX    TMP DP  RH WIND       PRES   REMARKS
BEAVER ISLAND  CLEAR     38  23  55 CALM      29.94R
BELLAIRE       CLEAR     46  22  37 NE6       29.91R
CADILLAC       PTCLDY    44  22  42 E6        29.85R
CHARLEVOIX     CLEAR     46  24  40 NE6       29.95R
FRANKFORT      CLEAR     47  16  28 NE7       29.88R
GAYLORD        CLEAR     44  23  43 CALM      29.90R
GRAYLING       CLEAR     42  22  45 CALM      29.90R
HARBOR SPRINGS CLEAR     45  24  43 CALM      29.92R
HOUGHTON LAKE  CLEAR     40  22  48 E8        29.89R WCI  34
MANISTEE       PTCLDY    48  21  34 NE10      29.86R
OSCODA         CLEAR     41  24  51 CALM      29.90S
PELLSTON       CLEAR     43  24  47 N3        29.93R
ROGERS CITY    MOCLDY    37  25  63 SW5       29.92S WCI  33
TRAVERSE CITY  PTCLDY    45  28  51 NE12      29.87R
$$
MIZ007>008-015-260200-
EASTERN UPPER MICHIGAN

CITY           SKY/WX    TMP DP  RH WIND       PRES   REMARKS
KINROSS        CLEAR     37  21  52 NW10      29.93R WCI  30
MACKINAC ISLAN CLEAR     38  24  56 N8        29.93R WCI  32
NEWBERRY       CLEAR     37  23  57 N8        29.95R WCI  30
S. S. MARIE    CLOUDY    39  23  52 NW8       29.92R WCI  33
MUNISING         N/A     35  29  78 N6        29.99R WCI  30
$$
MIZ004>006-011>014-085-260200-
CENTRAL UPPER MICHIGAN

CITY           SKY/WX    TMP DP  RH WIND       PRES   REMARKS
MANISTIQUE     CLEAR     42  22  45 N7        29.95R
ESCANABA       CLEAR     43  18  36 N7        29.96R
MENOMINEE      CLEAR     43  19  39 NE9       29.92S
SAWYER-GWINN   CLEAR     34  19  55 N9        29.97R WCI  26
$$
MIZ001>003-009>011-084-260200-
WESTERN UPPER MICHIGAN

CITY           SKY/WX    TMP DP  RH WIND       PRES   REMARKS
IRON MOUNTAIN  CLEAR     44  18  35 NE10      29.93R
HOUGHTON       CLEAR     37  20  50 E3        29.99S
COPPER HARBOR    N/A     35  29  78 CALM      30.02S
IRONWOOD       CLEAR     39  23  52 N5        29.96R
$$

ABBREVIATIONS USED IN REMARKS
   TC - TEMPERATURE IN CELSIUS
  WCI - WIND CHILL INDEX
   HX - HEAT INDEX
  VSB - VISIBILITY




USA.gov is the U.S. government's official web portal to all federal, state and local government web resources and services.